QPF
0.00 0.00 0.00 0.00 0.00 0.00 0.00 0.00 0.00 0.00 0.00 0.00 0.00 0.00 0.00 0.00 0.00 0.00 0.00 0.00 0.00 0.00 0.00 0.00 0.01 0.01 0.01 0.01 0.04 0.08 0.11 0.12 0.10 0.08 0.06 0.03 0.03 0.07 0.08 0.09 0.09 0.09 0.07 0.07 0.07 0.09 0.09 0.07 0.04
0.00 0.00 0.00 0.00 0.00 0.00 0.00 0.00 0.00 0.00 0.00 0.00 0.00 0.00 0.00 0.00 0.00 0.00 0.00 0.00 0.00 0.00 0.00 0.00 0.01 0.02 0.01 0.02 0.05 0.09 0.12 0.13 0.12 0.11 0.07 0.04 0.05 0.09 0.10 0.13 0.12 0.11 0.07 0.04 0.04 0.07 0.07 0.06 0.04
0.00 0.00 0.00 0.00 0.00 0.00 0.00 0.00 0.00 0.00 0.00 0.00 0.00 0.00 0.00 0.00 0.00 0.00 0.00 0.00 0.00 0.00 0.00 0.00 0.01 0.01 0.02 0.03 0.06 0.09 0.11 0.13 0.14 0.12 0.05 0.04 0.07 0.09 0.11 0.13 0.13 0.11 0.05 0.03 0.03 0.04 0.06 0.07 0.04
0.00 0.00 0.00 0.00 0.00 0.00 0.00 0.00 0.00 0.00 0.00 0.00 0.00 0.00 0.00 0.00 0.00 0.00 0.00 0.00 0.00 0.00 0.00 0.00 0.01 0.01 0.02 0.05 0.07 0.09 0.10 0.12 0.12 0.07 0.03 0.04 0.04 0.06 0.10 0.11 0.08 0.05 0.03 0.01 0.01 0.03 0.05 0.05 0.03
0.00 0.00 0.00 0.00 0.00 0.00 0.00 0.00 0.00 0.00 0.00 0.00 0.00 0.00 0.00 0.00 0.00 0.00 0.00 0.00 0.00 0.00 0.00 0.00 0.01 0.01 0.03 0.06 0.08 0.08 0.09 0.09 0.08 0.04 0.02 0.02 0.02 0.04 0.07 0.06 0.03 0.01 0.00 0.00 0.01 0.02 0.03 0.03 0.03
0.00 0.00 0.00 0.00 0.00 0.00 0.00 0.00 0.00 0.00 0.00 0.00 0.00 0.00 0.00 0.00 0.00 0.00 0.00 0.00 0.00 0.00 0.00 0.00 0.01 0.01 0.03 0.06 0.07 0.06 0.06 0.05 0.04 0.02 0.02 0.02 0.03 0.03 0.04 0.02 0.01 0.00 0.00 0.00 0.00 0.01 0.03 0.04 0.05
0.00 0.00 0.00 0.00 0.00 0.00 0.00 0.00 0.00 0.00 0.00 0.00 0.00 0.00 0.00 0.00 0.00 0.00 0.00 0.00 0.00 0.00 0.00 0.00 0.01 0.01 0.02 0.06 0.07 0.06 0.04 0.03 0.03 0.02 0.02 0.02 0.04 0.04 0.03 0.01 0.00 0.00 0.00 0.00 0.00 0.02 0.05 0.06 0.06
0.00 0.00 0.00 0.00 0.00 0.00 0.00 0.00 0.00 0.00 0.00 0.00 0.00 0.00 0.00 0.00 0.00 0.00 0.00 0.00 0.00 0.00 0.00 0.00 0.01 0.02 0.04 0.06 0.07 0.08 0.06 0.04 0.04 0.03 0.02 0.03 0.03 0.02 0.01 0.00 0.00 0.00 0.00 0.00 0.01 0.04 0.05 0.04 0.03
0.00 0.00 0.00 0.00 0.00 0.00 0.00 0.00 0.00 0.00 0.00 0.00 0.00 0.00 0.00 0.00 0.00 0.00 0.00 0.00 0.00 0.00 0.00 0.00 0.00 0.01 0.03 0.06 0.06 0.10 0.08 0.07 0.05 0.04 0.03 0.04 0.03 0.02 0.01 0.00 0.00 0.00 0.00 0.00 0.03 0.06 0.04 0.02 0.01
0.00 0.01 0.00 0.00 0.00 0.00 0.00 0.00 0.00 0.00 0.00 0.00 0.00 0.00 0.00 0.00 0.00 0.00 0.00 0.00 0.00 0.00 0.00 0.00 0.00 0.00 0.01 0.03 0.08 0.12 0.08 0.06 0.04 0.04 0.02 0.02 0.01 0.01 0.00 0.00 0.00 0.00 0.00 0.01 0.03 0.05 0.02 0.00 0.00
0.00 0.00 0.00 0.00 0.00 0.00 0.00 0.00 0.00 0.00 0.00 0.00 0.00 0.00 0.00 0.00 0.00 0.00 0.00 0.00 0.00 0.00 0.00 0.00 0.00 0.00 0.00 0.02 0.06 0.07 0.07 0.06 0.03 0.02 0.02 0.01 0.00 0.00 0.00 0.00 0.00 0.00 0.00 0.00 0.01 0.01 0.00 0.00 0.00
0.00 0.00 0.00 0.00 0.00 0.00 0.00 0.00 0.00 0.00 0.00 0.00 0.00 0.00 0.00 0.00 0.00 0.00 0.00 0.00 0.00 0.00 0.00 0.00 0.00 0.00 0.00 0.01 0.02 0.03 0.02 0.02 0.02 0.01 0.00 0.00 0.00 0.00 0.00 0.01 0.01 0.00 0.00 0.00 0.00 0.00 0.00 0.00 0.00
0.00 0.00 0.00 0.00 0.00 0.00 0.00 0.00 0.00 0.00 0.00 0.00 0.00 0.00 0.00 0.00 0.00 0.00 0.00 0.00 0.00 0.00 0.00 0.00 0.00 0.00 0.00 0.00 0.00 0.01 0.01 0.02 0.01 0.01 0.00 0.00 0.00 0.00 0.00 0.00 0.01 0.01 0.00 0.00 0.00 0.00 0.00 0.00 0.00
0.00 0.00 0.00 0.00 0.00 0.00 0.00 0.00 0.00 0.00 0.00 0.00 0.00 0.00 0.00 0.00 0.00 0.00 0.00 0.00 0.00 0.00 0.00 0.00 0.00 0.00 0.00 0.00 0.00 0.00 0.00 0.01 0.01 0.01 0.00 0.00 0.00 0.00 0.00 0.00 0.01 0.02 0.01 0.00 0.00 0.00 0.01 0.00 0.00
0.02 0.01 0.01 0.01 0.01 0.00 0.00 0.00 0.00 0.00 0.00 0.00 0.00 0.00 0.00 0.00 0.00 0.00 0.00 0.00 0.00 0.00 0.00 0.00 0.00 0.00 0.00 0.00 0.00 0.00 0.00 0.00 0.00 0.01 0.00 0.00 0.00 0.00 0.00 0.00 0.01 0.02 0.02 0.01 0.02 0.02 0.01 0.00 0.00
0.05 0.03 0.01 0.01 0.01 0.00 0.00 0.00 0.00 0.00 0.00 0.00 0.00 0.00 0.00 0.00 0.00 0.00 0.00 0.00 0.00 0.00 0.00 0.01 0.01 0.00 0.00 0.00 0.00 0.00 0.00 0.00 0.00 0.01 0.00 0.00 0.00 0.00 0.00 0.00 0.01 0.02 0.02 0.03 0.04 0.05 0.02 0.00 0.00
0.03 0.02 0.01 0.01 0.00 0.00 0.00 0.00 0.00 0.00 0.00 0.00 0.00 0.00 0.00 0.00 0.00 0.00 0.00 0.00 0.00 0.00 0.00 0.01 0.01 0.01 0.02 0.02 0.01 0.01 0.00 0.00 0.00 0.00 0.00 0.00 0.00 0.00 0.00 0.01 0.01 0.02 0.04 0.06 0.05 0.05 0.02 0.02 0.01
0.04 0.03 0.02 0.01 0.00 0.00 0.00 0.00 0.00 0.00 0.00 0.00 0.00 0.00 0.00 0.00 0.00 0.00 0.00 0.00 0.00 0.00 0.00 0.01 0.03 0.05 0.06 0.07 0.06 0.06 0.03 0.02 0.02 0.01 0.01 0.01 0.01 0.01 0.01 0.02 0.02 0.03 0.06 0.10 0.07 0.06 0.04 0.04 0.03
0.03 0.04 0.03 0.02 0.01 0.01 0.00 0.00 0.00 0.00 0.00 0.00 0.00 0.00 0.00 0.00 0.00 0.00 0.00 0.00 0.00 0.00 0.00 0.01 0.03 0.06 0.08 0.11 0.11 0.12 0.15 0.11 0.06 0.03 0.02 0.02 0.02 0.02 0.03 0.03 0.04 0.04 0.07 0.12 0.11 0.08 0.05 0.03 0.01
0.04 0.05 0.05 0.04 0.02 0.01 0.01 0.00 0.00 0.00 0.00 0.00 0.00 0.00 0.00 0.00 0.00 0.00 0.00 0.00 0.00 0.00 0.00 0.00 0.02 0.04 0.07 0.12 0.15 0.15 0.18 0.13 0.09 0.08 0.05 0.04 0.04 0.05 0.05 0.06 0.07 0.07 0.09 0.13 0.12 0.08 0.05 0.02 0.01
0.07 0.06 0.06 0.05 0.04 0.02 0.01 0.00 0.00 0.00 0.00 0.00 0.00 0.00 0.00 0.00 0.00 0.00 0.00 0.00 0.00 0.00 0.00 0.00 0.01 0.02 0.04 0.08 0.11 0.13 0.15 0.13 0.13 0.14 0.13 0.09 0.08 0.10 0.10 0.09 0.09 0.08 0.08 0.12 0.12 0.09 0.08 0.04 0.01
0.07 0.05 0.03 0.03 0.02 0.02 0.01 0.00 0.00 0.00 0.00 0.00 0.00 0.00 0.00 0.00 0.00 0.00 0.00 0.00 0.00 0.00 0.00 0.00 0.00 0.01 0.02 0.03 0.06 0.11 0.15 0.17 0.20 0.19 0.18 0.14 0.11 0.11 0.11 0.13 0.11 0.10 0.10 0.12 0.13 0.11 0.08 0.10 0.05
0.05 0.03 0.03 0.02 0.02 0.02 0.01 0.01 0.00 0.00 0.00 0.00 0.00 0.00 0.00 0.00 0.00 0.00 0.00 0.00 0.00 0.00 0.00 0.00 0.00 0.00 0.01 0.01 0.02 0.05 0.10 0.13 0.14 0.12 0.11 0.12 0.11 0.11 0.12 0.14 0.13 0.11 0.10 0.10 0.11 0.09 0.08 0.07 0.08
0.04 0.04 0.03 0.02 0.02 0.02 0.01 0.01 0.00 0.00 0.00 0.00 0.00 0.00 0.00 0.00 0.00 0.00 0.00 0.00 0.00 0.00 0.00 0.00 0.00 0.00 0.00 0.00 0.01 0.01 0.04 0.06 0.06 0.07 0.09 0.10 0.09 0.09 0.09 0.11 0.12 0.12 0.12 0.11 0.11 0.11 0.10 0.07 0.08
0.02 0.03 0.04 0.03 0.03 0.02 0.01 0.00 0.00 0.00 0.00 0.00 0.00 0.00 0.00 0.00 0.00 0.00 0.00 0.00 0.00 0.00 0.00 0.00 0.00 0.00 0.00 0.00 0.00 0.00 0.01 0.02 0.03 0.04 0.06 0.06 0.06 0.06 0.06 0.06 0.09 0.12 0.14 0.15 0.15 0.14 0.13 0.09 0.08
0.01 0.01 0.02 0.02 0.01 0.00 0.00 0.00 0.00 0.00 0.00 0.00 0.00 0.00 0.00 0.00 0.00 0.00 0.00 0.00 0.00 0.00 0.00 0.00 0.00 0.00 0.00 0.00 0.00 0.00 0.00 0.00 0.01 0.02 0.03 0.02 0.05 0.06 0.06 0.05 0.07 0.11 0.15 0.20 0.21 0.17 0.14 0.11 0.07
0.00 0.00 0.00 0.00 0.00 0.00 0.00 0.00 0.00 0.00 0.00 0.00 0.00 0.00 0.00 0.00 0.00 0.00 0.00 0.00 0.00 0.00 0.00 0.00 0.00 0.00 0.00 0.00 0.00 0.00 0.00 0.00 0.01 0.01 0.02 0.03 0.04 0.04 0.04 0.05 0.07 0.10 0.14 0.20 0.25 0.25 0.20 0.15 0.11
0.01 0.01 0.01 0.01 0.01 0.00 0.00 0.00 0.00 0.00 0.00 0.00 0.00 0.00 0.00 0.00 0.00 0.00 0.00 0.00 0.00 0.00 0.00 0.00 0.00 0.00 0.00 0.00 0.00 0.00 0.00 0.00 0.01 0.01 0.02 0.03 0.02 0.01 0.02 0.03 0.06 0.10 0.15 0.22 0.24 0.27 0.25 0.22 0.17
0.03 0.03 0.02 0.02 0.01 0.01 0.01 0.00 0.00 0.00 0.00 0.00 0.00 0.00 0.00 0.00 0.00 0.00 0.00 0.00 0.00 0.00 0.00 0.00 0.00 0.00 0.00 0.00 0.00 0.00 0.00 0.00 0.00 0.01 0.03 0.02 0.01 0.02 0.04 0.04 0.05 0.08 0.10 0.16 0.23 0.27 0.27 0.26 0.23
0.06 0.06 0.06 0.08 0.07 0.05 0.04 0.01 0.00 0.00 0.00 0.01 0.01 0.01 0.01 0.00 0.00 0.00 0.00 0.00 0.00 0.00 0.00 0.00 0.00 0.00 0.00 0.00 0.00 0.00 0.00 0.00 0.00 0.01 0.01 0.01 0.01 0.01 0.02 0.03 0.04 0.05 0.09 0.12 0.14 0.20 0.24 0.23 0.21
MSLP
1007.83 1008.40 1009.16 1010.03 1010.88 1011.59 1012.09 1012.35 1012.37 1012.21 1011.97 1011.71 1011.50 1011.36 1011.29 1011.26 1011.22 1011.14 1011.00 1010.83 1010.66 1010.56 1010.58 1010.73 1011.02 1011.41 1011.83 1012.22 1012.53 1012.73 1012.83 1012.86 1012.87 1012.91 1013.03 1013.22 1013.48 1013.78 1014.06 1014.30 1014.47 1014.55 1014.57 1014.54 1014.49 1014.43 1014.37 1014.31 1014.23
1008.10 1008.78 1009.62 1010.49 1011.29 1011.90 1012.26 1012.35 1012.20 1011.89 1011.52 1011.17 1010.91 1010.76 1010.70 1010.71 1010.72 1010.70 1010.63 1010.53 1010.44 1010.41 1010.49 1010.70 1011.04 1011.47 1011.92 1012.35 1012.68 1012.91 1013.02 1013.06 1013.08 1013.11 1013.20 1013.37 1013.59 1013.85 1014.11 1014.33 1014.48 1014.57 1014.61 1014.61 1014.60 1014.58 1014.55 1014.51 1014.45
1008.49 1009.24 1010.09 1010.91 1011.61 1012.08 1012.28 1012.21 1011.91 1011.48 1011.03 1010.63 1010.35 1010.21 1010.19 1010.24 1010.30 1010.33 1010.32 1010.28 1010.25 1010.27 1010.40 1010.66 1011.03 1011.49 1011.97 1012.41 1012.77 1013.02 1013.16 1013.23 1013.25 1013.29 1013.38 1013.52 1013.72 1013.94 1014.17 1014.36 1014.50 1014.60 1014.66 1014.70 1014.72 1014.74 1014.75 1014.73 1014.67
1008.95 1009.73 1010.55 1011.29 1011.85 1012.16 1012.20 1011.98 1011.57 1011.07 1010.57 1010.17 1009.91 1009.80 1009.82 1009.91 1010.01 1010.08 1010.11 1010.11 1010.12 1010.18 1010.34 1010.62 1011.01 1011.47 1011.96 1012.41 1012.78 1013.06 1013.23 1013.33 1013.38 1013.45 1013.54 1013.68 1013.86 1014.06 1014.26 1014.43 1014.57 1014.68 1014.76 1014.83 1014.89 1014.94 1014.97 1014.97 1014.92
1009.48 1010.25 1010.99 1011.60 1012.01 1012.16 1012.05 1011.71 1011.23 1010.70 1010.21 1009.85 1009.63 1009.57 1009.63 1009.75 1009.88 1009.97 1010.02 1010.04 1010.07 1010.15 1010.32 1010.60 1010.98 1011.43 1011.90 1012.35 1012.72 1013.02 1013.22 1013.36 1013.46 1013.57 1013.69 1013.85 1014.03 1014.22 1014.40 1014.57 1014.70 1014.81 1014.91 1015.00 1015.09 1015.16 1015.22 1015.22 1015.17
1010.03 1010.74 1011.37 1011.85 1012.10 1012.10 1011.87 1011.45 1010.94 1010.42 1009.98 1009.68 1009.53 1009.52 1009.61 1009.75 1009.89 1009.99 1010.04 1010.06 1010.10 1010.18 1010.35 1010.61 1010.97 1011.39 1011.83 1012.25 1012.62 1012.92 1013.15 1013.33 1013.49 1013.65 1013.82 1014.01 1014.21 1014.40 1014.59 1014.75 1014.88 1015.00 1015.11 1015.21 1015.31 1015.39 1015.45 1015.45 1015.39
1010.54 1011.17 1011.68 1012.01 1012.11 1011.98 1011.66 1011.21 1010.71 1010.24 1009.87 1009.64 1009.55 1009.59 1009.71 1009.86 1010.00 1010.09 1010.13 1010.16 1010.19 1010.28 1010.43 1010.68 1011.01 1011.38 1011.78 1012.16 1012.50 1012.80 1013.05 1013.26 1013.47 1013.68 1013.90 1014.13 1014.36 1014.58 1014.77 1014.93 1015.07 1015.19 1015.30 1015.41 1015.51 1015.59 1015.63 1015.62 1015.55
1010.97 1011.50 1011.88 1012.06 1012.03 1011.81 1011.43 1010.98 1010.51 1010.11 1009.82 1009.66 1009.64 1009.72 1009.85 1010.00 1010.12 1010.20 1010.24 1010.27 1010.31 1010.40 1010.55 1010.78 1011.08 1011.41 1011.76 1012.09 1012.40 1012.67 1012.93 1013.17 1013.41 1013.67 1013.93 1014.21 1014.47 1014.70 1014.91 1015.08 1015.22 1015.34 1015.45 1015.55 1015.63 1015.70 1015.73 1015.70 1015.62
1011.27 1011.68 1011.93 1011.98 1011.85 1011.56 1011.17 1010.73 1010.32 1009.99 1009.78 1009.69 1009.72 1009.81 1009.95 1010.08 1010.19 1010.26 1010.30 1010.34 1010.40 1010.50 1010.67 1010.89 1011.16 1011.46 1011.76 1012.04 1012.31 1012.56 1012.80 1013.05 1013.31 1013.60 1013.90 1014.20 1014.49 1014.74 1014.96 1015.14 1015.28 1015.40 1015.50 1015.59 1015.67 1015.72 1015.73 1015.69 1015.61
1011.42 1011.71 1011.83 1011.78 1011.57 1011.24 1010.85 1010.46 1010.11 1009.85 1009.70 1009.66 1009.70 1009.80 1009.93 1010.04 1010.13 1010.20 1010.25 1010.31 1010.40 1010.54 1010.72 1010.96 1011.22 1011.49 1011.75 1012.00 1012.22 1012.44 1012.66 1012.90 1013.17 1013.47 1013.79 1014.10 1014.41 1014.68 1014.91 1015.10 1015.25 1015.37 1015.47 1015.55 1015.62 1015.66 1015.66 1015.62 1015.54
1011.40 1011.58 1011.60 1011.46 1011.21 1010.87 1010.50 1010.15 1009.86 1009.66 1009.55 1009.53 1009.57 1009.65 1009.75 1009.84 1009.91 1009.98 1010.05 1010.14 1010.27 1010.45 1010.67 1010.93 1011.20 1011.46 1011.70 1011.92 1012.12 1012.31 1012.51 1012.74 1013.00 1013.29 1013.61 1013.93 1014.24 1014.52 1014.76 1014.96 1015.12 1015.25 1015.36 1015.45 1015.52 1015.56 1015.57 1015.55 1015.49
1011.28 1011.35 1011.29 1011.10 1010.82 1010.49 1010.15 1009.84 1009.59 1009.42 1009.32 1009.29 1009.31 1009.35 1009.41 1009.47 1009.53 1009.60 1009.69 1009.82 1010.00 1010.22 1010.49 1010.77 1011.06 1011.34 1011.58 1011.80 1011.99 1012.17 1012.36 1012.57 1012.81 1013.09 1013.39 1013.70 1014.01 1014.30 1014.55 1014.77 1014.95 1015.11 1015.24 1015.34 1015.43 1015.50 1015.53 1015.54 1015.51
1011.12 1011.11 1010.98 1010.76 1010.48 1010.17 1009.86 1009.58 1009.34 1009.17 1009.06 1008.99 1008.96 1008.95 1008.97 1008.99 1009.04 1009.11 1009.22 1009.38 1009.59 1009.86 1010.16 1010.48 1010.81 1011.11 1011.38 1011.62 1011.82 1012.01 1012.19 1012.39 1012.62 1012.88 1013.16 1013.46 1013.77 1014.06 1014.33 1014.57 1014.79 1014.98 1015.14 1015.29 1015.41 1015.51 1015.59 1015.63 1015.66
1011.03 1010.96 1010.79 1010.57 1010.29 1010.00 1009.71 1009.43 1009.19 1008.98 1008.81 1008.68 1008.59 1008.52 1008.48 1008.47 1008.50 1008.57 1008.69 1008.87 1009.11 1009.40 1009.73 1010.09 1010.44 1010.79 1011.10 1011.38 1011.62 1011.84 1012.04 1012.25 1012.47 1012.70 1012.97 1013.25 1013.55 1013.85 1014.14 1014.42 1014.68 1014.92 1015.13 1015.32 1015.49 1015.64 1015.76 1015.86 1015.94
1011.10 1010.99 1010.82 1010.60 1010.35 1010.07 1009.78 1009.48 1009.19 1008.91 1008.66 1008.44 1008.26 1008.12 1008.03 1007.99 1008.00 1008.07 1008.20 1008.38 1008.63 1008.92 1009.26 1009.64 1010.02 1010.41 1010.78 1011.11 1011.41 1011.68 1011.92 1012.14 1012.36 1012.58 1012.83 1013.10 1013.39 1013.70 1014.02 1014.34 1014.64 1014.93 1015.20 1015.44 1015.66 1015.85 1016.03 1016.18 1016.31
1011.38 1011.28 1011.12 1010.93 1010.69 1010.42 1010.10 1009.75 1009.38 1009.00 1008.63 1008.30 1008.02 1007.81 1007.67 1007.60 1007.61 1007.67 1007.80 1007.98 1008.21 1008.49 1008.82 1009.20 1009.60 1010.03 1010.45 1010.85 1011.22 1011.54 1011.83 1012.07 1012.30 1012.52 1012.75 1013.00 1013.29 1013.61 1013.95 1014.31 1014.66 1015.00 1015.32 1015.60 1015.86 1016.10 1016.32 1016.51 1016.69
1011.87 1011.80 1011.69 1011.54 1011.33 1011.04 1010.69 1010.25 1009.76 1009.25 1008.74 1008.28 1007.90 1007.61 1007.43 1007.35 1007.35 1007.42 1007.54 1007.71 1007.91 1008.17 1008.47 1008.82 1009.23 1009.68 1010.15 1010.61 1011.04 1011.43 1011.76 1012.04 1012.27 1012.48 1012.70 1012.94 1013.23 1013.55 1013.92 1014.30 1014.70 1015.08 1015.43 1015.75 1016.04 1016.31 1016.55 1016.78 1017.00
1012.51 1012.50 1012.47 1012.37 1012.18 1011.88 1011.46 1010.92 1010.28 1009.61 1008.95 1008.35 1007.86 1007.51 1007.30 1007.21 1007.23 1007.31 1007.44 1007.59 1007.76 1007.97 1008.23 1008.55 1008.94 1009.39 1009.89 1010.40 1010.89 1011.33 1011.71 1012.01 1012.25 1012.45 1012.65 1012.88 1013.15 1013.48 1013.86 1014.27 1014.70 1015.11 1015.49 1015.83 1016.13 1016.41 1016.67 1016.92 1017.16
1013.17 1013.26 1013.32 1013.29 1013.13 1012.81 1012.31 1011.64 1010.86 1010.01 1009.18 1008.44 1007.86 1007.45 1007.22 1007.16 1007.20 1007.32 1007.46 1007.60 1007.75 1007.91 1008.11 1008.38 1008.74 1009.18 1009.68 1010.21 1010.74 1011.22 1011.62 1011.94 1012.19 1012.38 1012.56 1012.77 1013.03 1013.36 1013.75 1014.18 1014.62 1015.05 1015.44 1015.79 1016.09 1016.36 1016.62 1016.87 1017.14
1013.71 1013.93 1014.09 1014.15 1014.03 1013.68 1013.10 1012.31 1011.36 1010.34 1009.35 1008.49 1007.82 1007.37 1007.15 1007.12 1007.22 1007.38 1007.55 1007.71 1007.83 1007.95 1008.10 1008.31 1008.61 1009.02 1009.50 1010.04 1010.58 1011.08 1011.50 1011.82 1012.06 1012.24 1012.41 1012.60 1012.84 1013.16 1013.55 1013.99 1014.45 1014.89 1015.29 1015.63 1015.92 1016.17 1016.42 1016.67 1016.93
1014.01 1014.36 1014.65 1014.79 1014.71 1014.35 1013.71 1012.80 1011.71 1010.54 1009.41 1008.43 1007.69 1007.23 1007.03 1007.05 1007.21 1007.44 1007.67 1007.84 1007.97 1008.05 1008.15 1008.30 1008.54 1008.90 1009.35 1009.86 1010.39 1010.89 1011.31 1011.63 1011.86 1012.03 1012.17 1012.35 1012.58 1012.89 1013.28 1013.73 1014.19 1014.64 1015.03 1015.37 1015.65 1015.88 1016.11 1016.34 1016.61
1014.01 1014.48 1014.88 1015.11 1015.08 1014.73 1014.03 1013.04 1011.83 1010.54 1009.30 1008.24 1007.46 1006.99 1006.83 1006.91 1007.16 1007.47 1007.75 1007.97 1008.10 1008.17 1008.22 1008.32 1008.50 1008.80 1009.20 1009.68 1010.19 1010.67 1011.07 1011.38 1011.60 1011.75 1011.88 1012.04 1012.26 1012.57 1012.96 1013.41 1013.88 1014.33 1014.73 1015.07 1015.34 1015.56 1015.77 1015.99 1016.24
1013.71 1014.29 1014.79 1015.10 1015.12 1014.78 1014.06 1013.01 1011.73 1010.36 1009.05 1007.95 1007.14 1006.69 1006.57 1006.72 1007.05 1007.43 1007.79 1008.05 1008.20 1008.27 1008.29 1008.34 1008.47 1008.71 1009.07 1009.50 1009.98 1010.43 1010.82 1011.12 1011.32 1011.46 1011.58 1011.72 1011.94 1012.24 1012.63 1013.08 1013.56 1014.02 1014.44 1014.78 1015.05 1015.27 1015.47 1015.67 1015.91
1013.21 1013.85 1014.42 1014.79 1014.85 1014.54 1013.82 1012.76 1011.46 1010.05 1008.72 1007.60 1006.81 1006.38 1006.30 1006.51 1006.90 1007.35 1007.77 1008.07 1008.25 1008.32 1008.33 1008.35 1008.44 1008.63 1008.94 1009.33 1009.77 1010.20 1010.58 1010.86 1011.06 1011.19 1011.30 1011.43 1011.64 1011.93 1012.31 1012.77 1013.26 1013.74 1014.17 1014.53 1014.82 1015.04 1015.24 1015.44 1015.67
1012.64 1013.30 1013.89 1014.29 1014.39 1014.10 1013.42 1012.38 1011.09 1009.70 1008.39 1007.29 1006.51 1006.11 1006.07 1006.31 1006.74 1007.24 1007.69 1008.03 1008.23 1008.31 1008.32 1008.32 1008.38 1008.55 1008.82 1009.19 1009.60 1010.01 1010.37 1010.65 1010.84 1010.97 1011.07 1011.19 1011.38 1011.67 1012.04 1012.50 1012.99 1013.49 1013.94 1014.33 1014.65 1014.90 1015.11 1015.31 1015.52
1012.14 1012.76 1013.34 1013.73 1013.84 1013.59 1012.95 1011.96 1010.73 1009.40 1008.14 1007.08 1006.33 1005.95 1005.91 1006.16 1006.60 1007.10 1007.55 1007.90 1008.12 1008.21 1008.22 1008.23 1008.28 1008.44 1008.70 1009.05 1009.45 1009.85 1010.21 1010.49 1010.68 1010.80 1010.90 1011.02 1011.19 1011.45 1011.81 1012.26 1012.76 1013.26 1013.74 1014.16 1014.52 1014.81 1015.04 1015.25 1015.46
1011.83 1012.36 1012.87 1013.23 1013.33 1013.10 1012.51 1011.60 1010.46 1009.21 1008.02 1007.01 1006.29 1005.91 1005.86 1006.07 1006.47 1006.93 1007.36 1007.69 1007.90 1008.00 1008.03 1008.05 1008.11 1008.28 1008.54 1008.89 1009.30 1009.71 1010.07 1010.36 1010.55 1010.68 1010.78 1010.88 1011.04 1011.28 1011.61 1012.04 1012.53 1013.05 1013.55 1014.00 1014.40 1014.72 1015.00 1015.22 1015.43
1011.75 1012.15 1012.55 1012.84 1012.91 1012.70 1012.16 1011.34 1010.30 1009.15 1008.04 1007.09 1006.39 1005.99 1005.88 1006.03 1006.34 1006.72 1007.09 1007.38 1007.57 1007.67 1007.71 1007.75 1007.85 1008.04 1008.32 1008.70 1009.12 1009.54 1009.92 1010.23 1010.44 1010.57 1010.67 1010.76 1010.90 1011.11 1011.42 1011.82 1012.30 1012.81 1013.33 1013.81 1014.24 1014.61 1014.92 1015.17 1015.38
1011.88 1012.13 1012.40 1012.60 1012.62 1012.41 1011.93 1011.19 1010.25 1009.20 1008.18 1007.27 1006.57 1006.13 1005.95 1005.99 1006.19 1006.46 1006.74 1006.96 1007.12 1007.20 1007.26 1007.34 1007.47 1007.70 1008.02 1008.43 1008.88 1009.33 1009.73 1010.06 1010.29 1010.44 1010.54 1010.63 1010.75 1010.94 1011.22 1011.59 1012.05 1012.55 1013.07 1013.58 1014.04 1014.45 1014.79 1015.06 1015.28
1012.15 1012.25 1012.38 1012.48 1012.45 1012.23 1011.79 1011.12 1010.28 1009.33 1008.37 1007.50 1006.80 1006.30 1006.02 1005.94 1006.00 1006.15 1006.31 1006.46 1006.57 1006.65 1006.72 1006.83 1007.01 1007.28 1007.64 1008.08 1008.56 1009.04 1009.47 1009.82 1010.08 1010.26 1010.37 1010.46 1010.58 1010.75 1011.01 1011.36 1011.79 1012.28 1012.79 1013.31 1013.79 1014.22 1014.58 1014.87 1015.10
Thickness
5835 5839 5839 5830 5817 5803 5790 5797 5805 5805 5810 5818 5819 5816 5810 5806 5799 5792 5807 5817 5816 5811 5806 5798 5794 5791 5787 5783 5779 5776 5773 5770 5767 5765 5763 5760 5758 5756 5753 5750 5748 5745 5743 5742 5743 5744 5748 5752 5756
5839 5839 5833 5824 5807 5788 5786 5801 5803 5808 5814 5818 5818 5815 5811 5807 5811 5808 5809 5813 5813 5810 5806 5801 5794 5790 5786 5782 5779 5775 5771 5768 5765 5763 5760 5758 5756 5754 5752 5749 5747 5744 5742 5742 5742 5743 5745 5748 5751
5839 5837 5825 5816 5801 5793 5791 5804 5808 5814 5818 5816 5813 5814 5811 5806 5809 5810 5813 5812 5812 5809 5805 5799 5793 5789 5785 5781 5777 5774 5770 5766 5764 5761 5758 5756 5754 5752 5750 5748 5745 5744 5742 5742 5742 5742 5743 5745 5748
5835 5829 5823 5810 5795 5801 5805 5811 5814 5810 5812 5815 5813 5807 5811 5812 5813 5815 5814 5812 5810 5806 5803 5798 5791 5787 5784 5780 5776 5772 5768 5765 5761 5759 5756 5753 5751 5749 5748 5746 5744 5742 5741 5741 5741 5741 5742 5744 5746
5832 5821 5807 5798 5798 5808 5815 5819 5818 5810 5808 5811 5811 5803 5803 5811 5815 5814 5811 5810 5807 5805 5802 5797 5790 5786 5782 5778 5774 5770 5766 5763 5759 5756 5753 5751 5749 5747 5745 5743 5742 5740 5740 5740 5740 5741 5742 5743 5744
5820 5817 5799 5790 5797 5808 5818 5822 5819 5813 5811 5810 5808 5802 5802 5810 5809 5809 5810 5808 5808 5805 5802 5797 5788 5785 5781 5777 5773 5769 5764 5760 5756 5753 5750 5748 5746 5744 5742 5741 5739 5738 5737 5737 5738 5739 5741 5741 5743
5813 5807 5798 5796 5794 5801 5813 5822 5818 5813 5810 5810 5813 5802 5803 5807 5809 5810 5809 5808 5807 5804 5801 5797 5791 5785 5779 5776 5772 5767 5762 5758 5754 5750 5747 5745 5742 5740 5739 5737 5736 5735 5734 5735 5735 5737 5738 5739 5740
5817 5808 5796 5797 5793 5798 5815 5819 5820 5815 5812 5819 5816 5803 5800 5808 5810 5809 5807 5805 5804 5802 5800 5797 5793 5788 5782 5776 5770 5765 5761 5756 5751 5747 5744 5741 5739 5737 5735 5734 5732 5732 5731 5732 5732 5733 5734 5735 5736
5814 5800 5792 5796 5796 5803 5815 5813 5816 5822 5817 5814 5816 5814 5814 5815 5810 5804 5801 5799 5798 5797 5798 5796 5793 5788 5783 5777 5770 5764 5759 5754 5749 5745 5741 5739 5740 5738 5734 5731 5728 5728 5728 5728 5728 5729 5730 5731 5733
5805 5793 5797 5807 5810 5810 5813 5812 5813 5811 5807 5806 5810 5813 5814 5811 5806 5801 5798 5796 5795 5794 5795 5796 5793 5788 5783 5777 5769 5764 5759 5754 5751 5747 5743 5743 5741 5738 5734 5726 5725 5724 5725 5725 5725 5726 5727 5732 5735
5802 5796 5803 5809 5814 5813 5810 5810 5814 5806 5799 5807 5807 5810 5810 5808 5804 5802 5801 5801 5798 5797 5795 5794 5792 5787 5783 5777 5770 5764 5760 5755 5753 5750 5743 5741 5739 5734 5732 5728 5724 5723 5724 5726 5723 5726 5729 5731 5731
5798 5802 5805 5809 5812 5810 5809 5810 5807 5807 5810 5821 5822 5819 5812 5807 5806 5803 5802 5802 5800 5797 5793 5792 5790 5787 5782 5778 5772 5767 5762 5757 5753 5748 5745 5740 5737 5735 5732 5729 5727 5725 5725 5724 5726 5725 5725 5726 5730
5794 5799 5804 5808 5808 5809 5809 5806 5805 5808 5818 5823 5821 5816 5812 5810 5810 5808 5807 5804 5801 5796 5792 5791 5787 5786 5782 5777 5770 5766 5762 5758 5753 5746 5743 5739 5735 5733 5730 5728 5724 5725 5724 5723 5723 5724 5722 5723 5725
5794 5795 5799 5803 5805 5807 5802 5804 5802 5807 5817 5815 5813 5812 5813 5812 5810 5809 5805 5802 5800 5797 5794 5791 5787 5784 5780 5775 5769 5765 5761 5754 5752 5745 5741 5738 5734 5731 5728 5727 5723 5723 5722 5723 5722 5722 5720 5720 5719
5790 5787 5791 5797 5800 5803 5799 5792 5799 5811 5812 5809 5809 5811 5811 5811 5810 5807 5807 5803 5801 5798 5797 5792 5787 5783 5778 5773 5768 5763 5758 5754 5749 5744 5740 5736 5733 5729 5726 5726 5722 5721 5720 5720 5720 5719 5718 5716 5714
5781 5776 5773 5789 5793 5796 5788 5780 5801 5809 5806 5803 5807 5809 5806 5808 5809 5809 5808 5804 5802 5798 5795 5792 5786 5781 5776 5771 5764 5760 5757 5752 5748 5743 5738 5735 5732 5728 5725 5724 5722 5720 5719 5718 5716 5716 5715 5713 5712
5766 5765 5769 5777 5786 5787 5783 5781 5797 5802 5800 5798 5801 5804 5804 5804 5805 5807 5805 5803 5801 5796 5793 5789 5785 5780 5775 5768 5762 5758 5755 5750 5746 5741 5737 5733 5730 5727 5723 5722 5721 5719 5717 5715 5715 5713 5713 5710 5708
5753 5759 5763 5766 5772 5774 5772 5777 5789 5796 5794 5794 5798 5801 5802 5802 5802 5803 5801 5799 5798 5795 5792 5788 5784 5779 5773 5765 5759 5754 5751 5747 5743 5739 5736 5731 5728 5725 5722 5719 5719 5717 5714 5712 5712 5710 5709 5708 5705
5752 5751 5752 5759 5762 5761 5763 5768 5778 5787 5788 5789 5794 5798 5801 5801 5801 5799 5796 5795 5794 5791 5788 5786 5781 5777 5770 5762 5755 5749 5746 5743 5740 5737 5734 5730 5726 5724 5720 5719 5718 5715 5712 5710 5710 5708 5706 5704 5705
5741 5739 5742 5748 5751 5750 5752 5758 5773 5780 5783 5787 5790 5793 5796 5795 5793 5790 5789 5789 5788 5784 5782 5780 5776 5773 5768 5762 5757 5752 5748 5743 5740 5735 5732 5729 5726 5723 5720 5717 5714 5712 5710 5707 5707 5706 5704 5703 5703
5725 5724 5726 5726 5734 5739 5737 5744 5760 5774 5782 5784 5786 5787 5789 5787 5787 5786 5783 5783 5781 5778 5775 5772 5770 5767 5763 5758 5753 5748 5744 5740 5736 5732 5729 5726 5724 5721 5718 5716 5712 5710 5708 5705 5704 5704 5702 5700 5702
5709 5717 5716 5715 5713 5716 5722 5719 5749 5765 5770 5777 5781 5782 5781 5781 5783 5780 5778 5777 5775 5772 5769 5767 5764 5760 5757 5753 5748 5743 5737 5734 5733 5731 5727 5723 5720 5718 5715 5712 5709 5706 5704 5702 5701 5702 5702 5699 5697
5703 5707 5704 5702 5700 5701 5711 5709 5738 5759 5758 5768 5775 5777 5777 5777 5778 5775 5774 5773 5771 5768 5764 5761 5757 5753 5750 5747 5743 5738 5735 5733 5731 5728 5724 5720 5716 5715 5713 5710 5706 5703 5700 5699 5698 5699 5699 5699 5697
5706 5696 5692 5693 5692 5687 5708 5708 5724 5751 5756 5762 5768 5770 5772 5772 5772 5771 5770 5767 5764 5762 5758 5754 5750 5746 5744 5740 5737 5733 5729 5726 5722 5720 5718 5716 5713 5711 5709 5707 5703 5700 5697 5695 5694 5693 5693 5695 5695
5702 5687 5675 5676 5678 5688 5711 5709 5726 5752 5758 5759 5762 5766 5768 5768 5766 5764 5762 5759 5757 5755 5752 5749 5744 5739 5736 5734 5732 5729 5724 5721 5717 5715 5713 5711 5709 5707 5706 5704 5700 5697 5694 5691 5689 5688 5688 5689 5691
5700 5694 5676 5670 5679 5695 5703 5706 5733 5753 5756 5759 5761 5764 5764 5762 5761 5759 5759 5756 5753 5750 5748 5745 5740 5736 5731 5728 5726 5724 5720 5715 5714 5711 5710 5708 5706 5706 5704 5702 5698 5694 5690 5687 5684 5681 5681 5683 5685
5698 5695 5702 5691 5692 5689 5704 5717 5734 5750 5750 5753 5755 5756 5756 5757 5757 5756 5755 5752 5750 5747 5744 5742 5737 5733 5728 5724 5720 5717 5716 5712 5709 5707 5706 5704 5704 5702 5700 5697 5694 5690 5687 5683 5680 5677 5676 5677 5679
5702 5701 5693 5684 5679 5681 5696 5704 5715 5731 5736 5743 5747 5749 5752 5753 5754 5754 5752 5750 5748 5746 5743 5740 5735 5730 5726 5722 5717 5712 5710 5707 5705 5704 5701 5700 5699 5698 5695 5692 5690 5687 5683 5680 5677 5674 5672 5671 5672
5687 5685 5686 5689 5690 5681 5680 5696 5722 5721 5727 5733 5739 5744 5746 5747 5749 5750 5749 5748 5747 5744 5741 5736 5732 5728 5723 5719 5715 5710 5707 5704 5701 5699 5698 5696 5695 5693 5690 5688 5686 5683 5680 5676 5673 5670 5668 5667 5666
5679 5680 5677 5666 5669 5675 5673 5690 5724 5722 5725 5727 5730 5734 5738 5741 5745 5746 5746 5744 5742 5741 5739 5735 5731 5726 5720 5716 5712 5707 5703 5700 5697 5696 5694 5693 5691 5689 5687 5685 5682 5679 5676 5673 5669 5666 5664 5663 5662